CW9927 Weather Reports


time (UTC)temp
F
wind
direction
speed
knots
gust
knots
rain 1hr
in
rain 24hr
in
rain mn
in
humidity
%
barometer
mb
20260506193418 73 0.0 0.0 0.00 0.00 0.00 57 1019.5
20260506192439 73 0.0 0.0 0.00 0.00 0.00 59 1019.7
20260506191417 72 0.0 0.0 0.00 0.00 0.00 59 1019.8
20260506190507 71 0.0 0.0 0.00 0.00 0.00 62 1019.9
20260506190248 71 0.0 0.0 0.00 0.00 0.00 62 1019.9
20260506185116 70 0.0 0.0 0.00 0.00 0.00 61 1020.0
20260506184117 70 0.0 0.0 0.00 0.00 0.00 62 1020.2
20260506183116 69 0.0 0.0 0.00 0.00 0.00 65 1020.2
20260506182116 68 0.0 0.0 0.00 0.00 0.00 64 1020.3
20260506181117 68 0.0 0.0 0.00 0.00 0.00 66 1020.3
20260506180116 67 0.0 0.0 0.00 0.00 0.00 67 1020.4
20260506175156 66 0.0 0.0 0.00 0.00 0.00 68 1020.4
20260506174116 66 0.0 0.0 0.00 0.00 0.00 69 1020.5
20260506173116 65 0.0 0.0 0.00 0.00 0.00 69 1020.5
20260506172116 65 0.0 0.0 0.00 0.00 0.00 69 1020.6
20260506171137 66 0.0 0.0 0.00 0.00 0.00 70 1020.7
20260506170116 64 0.0 0.0 0.00 0.00 0.00 74 1020.9
20260506165116 62 0.0 0.0 0.00 0.00 0.00 76 1020.9
20260506164116 62 0.0 0.0 0.00 0.00 0.00 75 1020.9
20260506163137 61 0.0 0.0 0.00 0.00 0.00 80 1021.0
20260506162116 59 0.0 0.0 0.00 0.00 0.00 81 1021.1
20260506161136 59 0.0 0.0 0.00 0.00 0.00 85 1021.0
20260506160116 57 0.0 0.0 0.00 0.00 0.00 87 1021.1
20260506155116 56 0.0 0.0 0.00 0.00 0.00 88 1021.2
20260506154116 56 0.0 0.0 0.00 0.00 0.00 88 1021.2
20260506153116 56 0.0 0.0 0.00 0.00 0.00 90 1021.3
20260506152116 56 0.0 0.0 0.00 0.00 0.00 94 1021.3
20260506151116 54 0.0 0.0 0.00 0.00 0.00 92 1021.3
20260506150117 53 0.0 0.0 0.00 0.00 0.00 92 1021.3
20260506145116 52 0.0 0.0 0.00 0.00 0.00 92 1021.3
20260506144116 52 0.0 0.0 0.00 0.00 0.00 93 1021.3
20260506143116 51 0.0 0.0 0.00 0.00 0.00 93 1021.4
20260506142136 50 0.0 0.0 0.00 0.00 0.00 93 1021.3
20260506141116 49 0.0 0.0 0.00 0.00 0.00 92 1021.2
20260506140116 49 0.0 0.0 0.00 0.00 0.00 92 1021.0
20260506135117 48 0.0 0.0 0.00 0.00 0.00 91 1020.9
20260506134117 48 0.0 0.0 0.00 0.00 0.00 91 1020.8
20260506133137 48 0.0 0.0 0.00 0.00 0.00 91 1020.7
20260506132137 47 0.0 0.0 0.00 0.00 0.00 91 1020.6
20260506131116 47 0.0 0.0 0.00 0.00 0.00 91 1020.6
20260506130212 46 0.0 0.0 0.00 0.00 0.00 90 1020.5
20260506125117 47 0.0 0.0 0.00 0.00 0.00 90 1020.4
20260506124117 47 0.0 0.0 0.00 0.00 0.00 90 1020.3
20260506123117 47 0.0 0.0 0.00 0.00 0.00 90 1020.3
20260506122117 48 0.0 0.0 0.00 0.00 0.00 90 1020.3
20260506121157 48 0.0 0.0 0.00 0.00 0.00 90 1020.1
20260506120119 48 0.0 0.0 0.00 0.00 0.00 89 1020.1
20260506115117 48 0.0 0.0 0.00 0.00 0.00 89 1020.1
20260506114117 48 0.0 0.0 0.00 0.00 0.00 89 1020.0
20260506113117 48 0.0 0.0 0.00 0.00 0.00 89 1019.9
20260506112117 49 0.0 0.0 0.00 0.00 0.00 89 1019.8
20260506111118 49 0.0 0.0 0.00 0.00 0.00 89 1019.8
20260506110117 49 0.0 0.0 0.00 0.00 0.00 89 1019.8
20260506105158 50 0.0 0.0 0.00 0.00 0.00 89 1019.9
20260506104117 50 0.0 0.0 0.00 0.00 0.00 89 1019.8
20260506103117 50 0.0 0.0 0.00 0.00 0.00 89 1019.8
20260506102200 50 0.0 0.0 0.00 0.00 0.00 89 1019.7
20260506101118 50 0.0 0.0 0.00 0.00 0.00 89 1019.6
20260506100117 50 0.0 0.0 0.00 0.00 0.00 89 1019.6
20260506095138 50 0.0 0.0 0.00 0.00 0.00 89 1019.6
20260506094117 50 0.0 0.0 0.00 0.00 0.00 89 1019.6
20260506093117 50 0.0 0.0 0.00 0.00 0.00 89 1019.7
20260506092117 50 0.0 0.0 0.00 0.00 0.00 89 1019.7
20260506091137 50 0.0 0.0 0.00 0.00 0.00 88 1019.8
20260506090117 50 0.0 0.0 0.00 0.00 0.00 88 1019.8
20260506085117 51 0.0 0.0 0.00 0.00 0.00 88 1019.7
20260506084117 51 0.0 0.0 0.00 0.00 0.00 88 1019.6
20260506083117 51 0.0 0.0 0.00 0.00 0.00 88 1019.6
20260506082138 51 0.0 0.0 0.00 0.00 0.00 88 1019.7
20260506081117 51 0.0 0.0 0.00 0.00 0.00 88 1019.7
20260506080117 51 0.0 0.0 0.00 0.00 0.00 88 1019.7
20260506073117 50 0.0 0.0 0.00 0.00 0.00 87 1019.4
20260506072117 50 0.0 0.0 0.00 0.00 0.00 86 1019.3
20260506071117 50 0.0 0.0 0.00 0.00 0.00 86 1019.3
20260506070217 51 0.0 0.0 0.00 0.00 0.00 86 1019.2
20260506062117 52 0.0 0.0 0.00 0.00 0.00 85 1018.9
20260506061116 53 0.0 0.0 0.00 0.00 0.00 85 1018.8
20260506060137 53 0.0 0.0 0.00 0.00 0.00 85 1018.7
20260506051116 55 0.0 0.0 0.00 0.00 0.00 82 1018.5
20260506050117 56 0.0 0.0 0.00 0.00 0.00 82 1018.4
20260506045116 56 0.0 0.0 0.00 0.00 0.00 81 1018.4
20260506044116 56 0.0 0.0 0.00 0.00 0.00 81 1018.3
20260506043116 57 0.0 0.0 0.00 0.00 0.00 81 1018.3
20260506042116 57 0.0 0.0 0.00 0.00 0.00 81 1018.1
20260506041117 57 0.0 0.0 0.00 0.00 0.00 81 1018.0
20260506040137 57 0.0 0.0 0.00 0.00 0.00 81 1017.9
20260506035117 57 0.0 0.0 0.00 0.00 0.00 81 1017.8
20260506034116 57 0.0 0.0 0.00 0.00 0.00 81 1017.7
20260506033116 57 0.0 0.0 0.00 0.00 0.00 80 1017.4
20260506032117 57 0.0 0.0 0.00 0.00 0.00 80 1017.3
20260506031116 57 0.0 0.0 0.00 0.00 0.00 80 1017.0
20260506030117 58 0.0 0.0 0.00 0.00 0.00 79 1016.9
20260506025116 58 0.0 0.0 0.00 0.00 0.00 79 1016.7
20260506024116 58 0.0 0.0 0.00 0.00 0.00 79 1016.7
20260506023157 58 0.0 0.0 0.00 0.00 0.00 79 1016.7
20260506022137 58 0.0 0.0 0.00 0.00 0.00 79 1016.7
20260506021116 58 0.0 0.0 0.00 0.00 0.00 79 1016.7
20260506020136 59 0.0 0.0 0.00 0.00 0.00 79 1016.7
20260506015117 59 0.0 0.0 0.00 0.00 0.00 79 1016.7
20260506014116 59 0.0 0.0 0.00 0.00 0.00 78 1016.8
20260506013116 59 0.0 0.0 0.00 0.00 0.00 78 1016.7
20260506012116 59 0.0 0.0 0.00 0.00 0.00 77 1016.6
20260506011136 60 0.0 0.0 0.00 0.00 0.00 77 1016.7
20260506005018 60 0.0 0.0 0.00 0.00 0.00 76 1016.6
20260506004018 60 0.0 0.0 0.00 0.00 0.00 75 1016.6
20260506003038 60 0.0 0.0 0.00 0.00 0.00 75 1016.5
20260506002017 60 0.0 0.0 0.00 0.00 0.00 74 1016.5
20260506001017 60 0.0 0.0 0.00 0.00 0.00 74 1016.4
20260506000017 61 0.0 0.0 0.00 0.00 0.00 74 1016.4
20260505235017 61 0.0 0.0 0.00 0.00 0.00 74 1016.4
20260505234017 61 0.0 0.0 0.00 0.00 0.00 73 1016.4
20260505233015 61 0.0 0.0 0.00 0.00 0.00 73 1016.4
20260505232017 61 0.0 0.0 0.00 0.00 0.00 72 1016.3
20260505231017 61 0.0 0.0 0.00 0.00 0.00 72 1016.3
20260505230117 61 0.0 0.0 0.00 0.00 0.00 72 1016.3
20260505225117 61 0.0 0.0 0.00 0.00 0.00 71 1016.5
20260505224116 61 0.0 0.0 0.00 0.00 0.00 71 1016.5
20260505223117 61 0.0 0.0 0.00 0.00 0.00 71 1016.6
20260505222116 61 0.0 0.0 0.00 0.00 0.00 71 1016.7
20260505221116 61 0.0 0.0 0.00 0.00 0.00 71 1016.7
20260505220117 61 0.0 0.0 0.00 0.00 0.00 71 1016.7
20260505215157 61 0.0 0.0 0.00 0.00 0.00 70 1016.7
20260505214137 61 0.0 0.0 0.00 0.00 0.00 71 1016.7
20260505213116 61 0.0 0.0 0.00 0.00 0.00 70 1016.8
20260505212117 61 0.0 0.0 0.00 0.00 0.00 73 1016.8
20260505211116 60 0.0 0.0 0.00 0.00 0.00 73 1017.0
20260505210116 60 0.0 0.0 0.00 0.00 0.00 74 1016.9
20260505205116 59 0.0 0.0 0.00 0.00 0.00 74 1017.0
20260505204136 59 0.0 0.0 0.00 0.00 0.00 75 1017.1
20260505203136 59 0.0 0.0 0.00 0.00 0.00 74 1017.0
20260505202116 59 0.0 0.0 0.00 0.00 0.00 73 1017.0
20260505201117 59 0.0 0.0 0.00 0.00 0.00 73 1017.0
20260505200157 59 0.0 0.0 0.00 0.00 0.00 72 1017.0
20260505195117 59 0.0 0.0 0.00 0.00 0.00 72 1017.1
20260505194116 59 0.0 0.0 0.00 0.00 0.00 73 1017.1